Orbital Elements at Epoch 2459200.5 (2020-Dec-17.0) TDB
Reference: JPL 17 (heliocentric ecliptic J2000)
Element | Value | Uncertainty (1-sigma) | Units |
e | .179232526973647 | 3.3472e-08 | |
a | 2.308710778480902 | 1.0281e-08 | au |
q | 1.894914711602474 | 7.6404e-08 | au |
i | 3.369375997925865 | 3.9308e-06 | deg |
node | 358.8145415113457 | 7.6461e-05 | deg |
peri | 335.2943895980708 | 7.7392e-05 | deg |
M | 165.6995373420929 | 1.3279e-05 | deg |
tp | 2458610.745154675519 (2019-May-07.24515468) | 4.6072e-05 | TDB |
period | 1281.30559518997 3.51 | 8.5584e-06 2.343e-08 | d yr |
n | .280963418369078 | 1.8767e-09 | deg/d |
Q | 2.72250684535933 | 1.2123e-08 | au |
|
| | Orbit Determination Parameters
Additional Information
|